Jordan Valley, OR

6:44 AM MST on January 18, 2017 (GMT -0700)
Rome State

Weather History for KREO - February, 2013

Change the Weather History Date:

Thursday, February 14, 2013

  Actual Average Record
Temperature  
Mean Temperature 37 °F 33 °F  
Max Temperature 49 °F 45 °F 62 °F (2015)
Min Temperature 24 °F 22 °F 11 °F (1989)
Degree Days  
Heating Degree Days 28 32  
Month to date heating degree days 418 463  
Since 1 July heating degree days 4210 4312  
Cooling Degree Days 0 0  
Month to date cooling degree days 0 0  
Year to date cooling degree days 0 0  
Moisture  
Dew Point 25 °F    
Average Humidity 62    
Maximum Humidity 88    
Minimum Humidity 36    
Precipitation  
Precipitation 0.00 in 0.02 in 0.45 in (1982)
Month to date precipitation 0.11 0.37  
Year to date precipitation 0.66 1.02  
Sea Level Pressure  
Sea Level Pressure 30.46 in    
Wind  
Wind Speed 5 mph (NNE)    
Max Wind Speed 13 mph    
Max Gust Speed 15 mph    
T = Trace of Precipitation, MM = Missing Value Source: NWS Daily Summary

Daily Weather History Graph

Daily Weather History Graph

Search for Another Location

Airport or City:

Trip Planner

Search our weather history database for the weather conditions in past years. The results will help you decide how hot, cold, wet, or windy it might be!

Date:

Astronomy

Feb. 14, 2013 Rise Set
Actual Time 6:49 AM PST 5:22 PM PST
Civil Twilight 6:20 AM PST 5:51 PM PST
Nautical Twilight 5:47 AM PST 6:24 PM PST
Astronomical Twilight 5:14 AM PST 6:57 PM PST
Moon 8:46 AM PST (2/14) 10:38 PM PST (2/14)
Length of Visible Light 11h 31m
Length of Day
10h 33m
Waxing Crescent, 22% of the Moon is Illuminated
Feb 14
Waxing Crescent
Feb 17
First Quarter
Feb 25
Full
Mar 4
Last Quarter
Mar 11
New

Hourly Weather History & Observations

Time (PST) Temp. Windchill Dew Point Humidity Pressure Visibility Wind Dir Wind Speed Gust Speed Precip Events Conditions
12:52 AM 37.0 °F 33.3 °F 24.1 °F 59% 30.35 in - North 4.6 mph - N/A   Unknown
1:52 AM 34.0 °F 31.0 °F 24.1 °F 67% 30.37 in - North 3.5 mph - N/A   Unknown
2:52 AM 34.0 °F 26.6 °F 24.1 °F 67% 30.36 in - North 9.2 mph - N/A   Unknown
3:52 AM 30.9 °F 21.7 °F 24.1 °F 76% 30.39 in - NNE 11.5 mph - N/A   Unknown
4:52 AM 30.0 °F 26.5 °F 24.1 °F 79% 30.43 in - NNW 3.5 mph - N/A   Unknown
5:52 AM 24.1 °F 17.0 °F 21.0 °F 88% 30.46 in - East 5.8 mph - N/A   Unknown
6:52 AM 26.1 °F 18.4 °F 23.0 °F 88% 30.47 in - East 6.9 mph - N/A   Unknown
7:52 AM 32.0 °F 27.5 °F 26.1 °F 79% 30.48 in - SW 4.6 mph - N/A   Unknown
8:52 AM 37.9 °F 35.5 °F 27.0 °F 65% 30.49 in - ENE 3.5 mph - N/A   Unknown
9:52 AM 39.9 °F 37.8 °F 26.1 °F 58% 30.49 in - Variable 3.5 mph - N/A   Unknown
10:52 AM 44.1 °F 40.1 °F 27.0 °F 51% 30.46 in - Variable 6.9 mph - N/A   Unknown
11:52 AM 45.0 °F 41.2 °F 26.1 °F 48% 30.46 in - SW 6.9 mph - N/A   Unknown
12:52 PM 46.0 °F 41.9 °F 24.1 °F 42% 30.45 in - West 8.1 mph - N/A   Unknown
1:52 PM 48.0 °F - 23.0 °F 37% 30.44 in - WSW 5.8 mph - N/A   Unknown
2:52 PM 48.9 °F - 24.1 °F 38% 30.44 in - Variable 3.5 mph - N/A   Unknown
3:52 PM 48.0 °F - 24.1 °F 39% 30.44 in - Calm Calm - N/A   Unknown
4:52 PM 46.0 °F 43.1 °F 25.0 °F 44% 30.45 in - NNW 5.8 mph - N/A   Unknown
5:52 PM 37.9 °F 32.7 °F 25.0 °F 60% 30.49 in - NNE 6.9 mph - N/A   Unknown
6:52 PM 37.9 °F 31.5 °F 26.1 °F 62% 30.49 in - NE 9.2 mph - N/A   Unknown
7:52 PM 33.1 °F - 26.1 °F 75% 30.50 in - Calm Calm - N/A   Unknown
8:52 PM 28.9 °F 25.2 °F 24.1 °F 82% 30.51 in - SSE 3.5 mph - N/A   Unknown
9:52 PM 28.9 °F 21.9 °F 25.0 °F 85% 30.51 in - ESE 6.9 mph - N/A   Unknown
10:52 PM 28.9 °F - 25.0 °F 85% 30.51 in - Calm Calm - N/A   Unknown
11:52 PM 26.1 °F - 23.0 °F 88% 30.53 in - Calm Calm - N/A   Unknown